Time,TemperatureF,DewpointF,PressureIn,WindDirection,WindDirectionDegrees,WindSpeedMPH,WindSpeedGustMPH,Humidity,HourlyPrecipIn,Conditions,Clouds,dailyrainin,SolarRadiationWatts/m^2,SoftwareType,DateUTC
2013-10-29 00:01:00,55.3,53.0,30.16,South,181,0.0,0.0,92,0.00,,,0.00,0.00,VWS V14.01,2013-10-29 04:01:00,
2013-10-29 00:06:00,55.1,52.8,30.16,South,181,0.0,0.0,92,0.00,,,0.00,0.00,VWS V14.01,2013-10-29 04:06:00,
2013-10-29 00:11:00,55.1,52.8,30.16,South,181,0.0,0.0,92,0.00,,,0.00,0.00,VWS V14.01,2013-10-29 04:11:00,
2013-10-29 00:16:00,55.1,52.8,30.16,South,181,0.0,0.0,92,0.00,,,0.00,0.00,VWS V14.01,2013-10-29 04:16:00,
2013-10-29 00:21:00,55.0,53.0,30.16,South,181,0.0,0.0,93,0.00,,,0.00,0.00,VWS V14.01,2013-10-29 04:21:00,
2013-10-29 00:26:00,55.0,53.0,30.16,South,181,0.0,0.0,93,0.00,,,0.00,0.00,VWS V14.01,2013-10-29 04:26:00,
2013-10-29 00:31:00,54.8,52.8,30.16,South,181,0.0,0.0,93,0.00,,,0.00,0.00,VWS V14.01,2013-10-29 04:31:00,
2013-10-29 00:36:00,55.0,53.0,30.16,South,181,0.0,0.0,93,0.00,,,0.00,0.00,VWS V14.01,2013-10-29 04:36:00,
2013-10-29 00:41:00,55.0,53.0,30.16,South,181,0.0,0.0,93,0.00,,,0.00,0.00,VWS V14.01,2013-10-29 04:41:00,
2013-10-29 00:46:00,54.8,52.8,30.16,South,181,0.0,0.0,93,0.00,,,0.00,0.00,VWS V14.01,2013-10-29 04:46:00,
2013-10-29 00:51:00,54.8,52.8,30.16,South,181,0.0,0.0,93,0.00,,,0.00,0.00,VWS V14.01,2013-10-29 04:51:00,
2013-10-29 00:56:00,54.7,52.7,30.16,South,181,0.0,0.0,93,0.00,,,0.00,0.00,VWS V14.01,2013-10-29 04:56:00,
2013-10-29 01:01:00,54.7,52.7,30.16,South,181,0.0,0.0,93,0.00,,,0.00,0.00,VWS V14.01,2013-10-29 05:01:00,
2013-10-29 01:06:00,54.7,52.7,30.16,South,181,0.0,0.0,93,0.00,,,0.00,0.00,VWS V14.01,2013-10-29 05:06:00,
2013-10-29 01:11:00,54.5,52.5,30.16,South,181,0.0,0.0,93,0.00,,,0.00,0.00,VWS V14.01,2013-10-29 05:11:00,
2013-10-29 01:16:00,54.5,52.5,30.16,South,181,0.0,0.0,93,0.00,,,0.00,0.00,VWS V14.01,2013-10-29 05:16:00,
2013-10-29 01:21:00,54.4,52.4,30.16,South,181,0.0,0.0,93,0.00,,,0.00,0.00,VWS V14.01,2013-10-29 05:21:00,
2013-10-29 01:26:00,54.4,52.4,30.16,South,181,0.0,0.0,93,0.00,,,0.00,0.00,VWS V14.01,2013-10-29 05:26:00,
2013-10-29 01:31:00,54.1,52.1,30.16,South,181,0.0,0.0,93,0.00,,,0.00,0.00,VWS V14.01,2013-10-29 05:31:00,
2013-10-29 01:36:00,53.9,51.9,30.16,South,181,0.0,0.0,93,0.00,,,0.00,0.00,VWS V14.01,2013-10-29 05:36:00,
2013-10-29 01:41:00,53.8,51.8,30.16,South,181,0.0,0.0,93,0.00,,,0.00,0.00,VWS V14.01,2013-10-29 05:41:00,
2013-10-29 01:46:00,53.5,51.5,30.16,South,181,0.0,0.0,93,0.00,,,0.00,0.00,VWS V14.01,2013-10-29 05:46:00,
2013-10-29 01:51:00,53.2,51.2,30.16,South,181,0.0,0.0,93,0.00,,,0.00,0.00,VWS V14.01,2013-10-29 05:51:00,
2013-10-29 01:56:00,52.9,50.9,30.16,South,181,0.0,0.0,93,0.00,,,0.00,0.00,VWS V14.01,2013-10-29 05:56:00,
2013-10-29 02:01:00,52.6,50.6,30.16,South,181,0.0,0.0,93,0.00,,,0.00,0.00,VWS V14.01,2013-10-29 06:01:00,
2013-10-29 02:06:00,52.3,50.3,30.16,South,181,0.0,0.0,93,0.00,,,0.00,0.00,VWS V14.01,2013-10-29 06:06:00,
2013-10-29 02:11:00,52.2,50.2,30.16,South,181,0.0,0.0,93,0.00,,,0.00,0.00,VWS V14.01,2013-10-29 06:11:00,
2013-10-29 02:16:00,52.0,50.0,30.16,South,181,0.0,0.0,93,0.00,,,0.00,0.00,VWS V14.01,2013-10-29 06:16:00,
2013-10-29 02:21:00,51.7,49.8,30.16,South,181,0.0,0.0,93,0.00,,,0.00,0.00,VWS V14.01,2013-10-29 06:21:00,
2013-10-29 02:26:00,51.6,49.7,30.16,South,181,0.0,0.0,93,0.00,,,0.00,0.00,VWS V14.01,2013-10-29 06:26:00,
2013-10-29 02:31:00,51.3,49.3,30.16,South,181,0.0,0.0,93,0.00,,,0.00,0.00,VWS V14.01,2013-10-29 06:31:00,
2013-10-29 02:36:00,51.0,48.8,30.16,South,181,0.0,0.0,92,0.00,,,0.00,0.00,VWS V14.01,2013-10-29 06:36:00,
2013-10-29 02:41:00,50.8,48.6,30.16,South,181,0.0,0.0,92,0.00,,,0.00,0.00,VWS V14.01,2013-10-29 06:41:00,
2013-10-29 02:46:00,50.5,48.3,30.16,South,181,0.0,0.0,92,0.00,,,0.00,0.00,VWS V14.01,2013-10-29 06:46:00,
2013-10-29 02:51:00,50.5,48.6,30.16,South,181,0.0,0.0,93,0.00,,,0.00,0.00,VWS V14.01,2013-10-29 06:51:00,
2013-10-29 02:56:00,50.4,48.5,30.16,South,181,0.0,0.0,93,0.00,,,0.00,0.00,VWS V14.01,2013-10-29 06:56:00,
2013-10-29 03:01:00,50.4,48.5,30.16,South,181,0.0,0.0,93,0.00,,,0.00,0.00,VWS V14.01,2013-10-29 07:01:00,
2013-10-29 03:06:00,50.1,48.2,30.17,South,181,0.0,0.0,93,0.00,,,0.00,0.00,VWS V14.01,2013-10-29 07:06:00,
2013-10-29 03:11:00,49.9,48.0,30.17,South,181,0.0,0.0,93,0.00,,,0.00,0.00,VWS V14.01,2013-10-29 07:11:00,
2013-10-29 03:16:00,49.9,48.0,30.17,South,181,0.0,0.0,93,0.00,,,0.00,0.00,VWS V14.01,2013-10-29 07:16:00,
2013-10-29 03:21:00,49.8,47.9,30.16,South,181,0.0,0.0,93,0.00,,,0.00,0.00,VWS V14.01,2013-10-29 07:21:00,
2013-10-29 03:26:00,49.6,47.7,30.16,South,181,0.0,0.0,93,0.00,,,0.00,0.00,VWS V14.01,2013-10-29 07:26:00,
2013-10-29 03:31:00,49.4,47.5,30.16,South,181,0.0,0.0,93,0.00,,,0.00,0.00,VWS V14.01,2013-10-29 07:31:00,
2013-10-29 03:36:00,49.2,47.3,30.17,South,181,0.0,0.0,93,0.00,,,0.00,0.00,VWS V14.01,2013-10-29 07:36:00,
2013-10-29 03:41:00,48.9,47.0,30.17,South,181,0.0,0.0,93,0.00,,,0.00,0.00,VWS V14.01,2013-10-29 07:41:00,
2013-10-29 03:46:00,48.8,46.9,30.17,South,181,0.0,0.0,93,0.00,,,0.00,0.00,VWS V14.01,2013-10-29 07:46:00,
2013-10-29 03:51:00,48.6,46.7,30.17,South,181,0.0,0.0,93,0.00,,,0.00,0.00,VWS V14.01,2013-10-29 07:51:00,
2013-10-29 03:56:00,48.6,46.7,30.17,South,181,0.0,0.0,93,0.00,,,0.00,0.00,VWS V14.01,2013-10-29 07:56:00,
2013-10-29 04:01:00,48.6,46.7,30.17,South,181,0.0,0.0,93,0.00,,,0.00,0.00,VWS V14.01,2013-10-29 08:01:00,
2013-10-29 04:06:00,48.5,46.6,30.17,South,181,0.0,0.0,93,0.00,,,0.00,0.00,VWS V14.01,2013-10-29 08:06:00,
2013-10-29 04:11:00,48.3,46.4,30.17,South,181,0.0,0.0,93,0.00,,,0.00,0.00,VWS V14.01,2013-10-29 08:11:00,
2013-10-29 04:16:00,48.2,46.3,30.17,South,181,0.0,0.0,93,0.00,,,0.00,0.00,VWS V14.01,2013-10-29 08:16:00,
2013-10-29 04:21:00,48.2,46.3,30.17,South,181,0.0,0.0,93,0.00,,,0.00,0.00,VWS V14.01,2013-10-29 08:21:00,
2013-10-29 04:26:00,48.2,46.3,30.17,South,181,0.0,0.0,93,0.00,,,0.00,0.00,VWS V14.01,2013-10-29 08:26:00,
2013-10-29 04:31:00,48.0,46.1,30.17,South,181,0.0,0.0,93,0.00,,,0.00,0.00,VWS V14.01,2013-10-29 08:31:00,
2013-10-29 04:36:00,48.0,46.1,30.16,South,181,0.0,0.0,93,0.00,,,0.00,0.00,VWS V14.01,2013-10-29 08:36:00,
2013-10-29 04:41:00,48.0,46.4,30.16,South,181,0.0,0.0,94,0.00,,,0.00,0.00,VWS V14.01,2013-10-29 08:41:00,
2013-10-29 04:46:00,48.0,46.4,30.16,South,181,0.0,0.0,94,0.00,,,0.00,0.00,VWS V14.01,2013-10-29 08:46:00,
2013-10-29 04:51:00,48.0,46.4,30.16,South,181,0.0,0.0,94,0.00,,,0.00,0.00,VWS V14.01,2013-10-29 08:51:00,
2013-10-29 04:56:00,47.9,46.3,30.16,South,181,0.0,0.0,94,0.00,,,0.00,0.00,VWS V14.01,2013-10-29 08:56:00,
2013-10-29 05:01:00,47.9,46.3,30.16,South,181,0.0,0.0,94,0.00,,,0.00,0.00,VWS V14.01,2013-10-29 09:01:00,
2013-10-29 05:06:00,47.7,46.1,30.17,South,181,0.0,0.0,94,0.00,,,0.00,0.00,VWS V14.01,2013-10-29 09:06:00,
2013-10-29 05:11:00,47.6,46.0,30.17,South,181,0.0,0.0,94,0.00,,,0.00,0.00,VWS V14.01,2013-10-29 09:11:00,
2013-10-29 05:16:00,47.4,45.8,30.17,South,181,0.0,0.0,94,0.00,,,0.00,0.00,VWS V14.01,2013-10-29 09:16:00,
2013-10-29 05:21:00,47.4,45.8,30.17,South,181,0.0,0.0,94,0.00,,,0.00,0.00,VWS V14.01,2013-10-29 09:21:00,
2013-10-29 05:26:00,47.3,45.7,30.17,South,181,0.0,0.0,94,0.00,,,0.00,0.00,VWS V14.01,2013-10-29 09:26:00,
2013-10-29 05:31:00,47.3,45.7,30.17,South,181,0.0,0.0,94,0.00,,,0.00,0.00,VWS V14.01,2013-10-29 09:31:00,
2013-10-29 05:36:00,47.1,45.5,30.18,South,181,0.0,0.0,94,0.00,,,0.00,0.00,VWS V14.01,2013-10-29 09:36:00,
2013-10-29 05:41:00,47.3,45.7,30.18,South,181,0.0,0.0,94,0.00,,,0.00,0.00,VWS V14.01,2013-10-29 09:41:00,
2013-10-29 05:46:00,47.3,45.7,30.18,South,181,0.0,0.0,94,0.00,,,0.00,0.00,VWS V14.01,2013-10-29 09:46:00,
2013-10-29 05:51:00,47.1,45.5,30.18,South,181,0.0,0.0,94,0.00,,,0.00,0.00,VWS V14.01,2013-10-29 09:51:00,
2013-10-29 05:56:00,47.0,45.4,30.18,South,181,0.0,0.0,94,0.00,,,0.00,0.00,VWS V14.01,2013-10-29 09:56:00,
2013-10-29 06:01:00,46.8,45.2,30.18,South,181,0.0,0.0,94,0.00,,,0.00,0.00,VWS V14.01,2013-10-29 10:01:00,
2013-10-29 06:06:00,46.8,45.2,30.18,South,181,0.0,0.0,94,0.00,,,0.00,0.00,VWS V14.01,2013-10-29 10:06:00,
2013-10-29 06:11:00,46.7,45.1,30.18,South,181,0.0,0.0,94,0.00,,,0.00,0.00,VWS V14.01,2013-10-29 10:11:00,
2013-10-29 06:16:00,46.7,45.1,30.18,South,181,0.0,0.0,94,0.00,,,0.00,0.00,VWS V14.01,2013-10-29 10:16:00,
2013-10-29 06:21:00,46.5,44.9,30.19,South,181,0.0,0.0,94,0.00,,,0.00,0.00,VWS V14.01,2013-10-29 10:21:00,
2013-10-29 06:26:00,46.4,44.8,30.19,South,181,0.0,0.0,94,0.00,,,0.00,0.00,VWS V14.01,2013-10-29 10:26:00,
2013-10-29 06:31:00,46.4,44.8,30.19,South,181,0.0,0.0,94,0.00,,,0.00,0.00,VWS V14.01,2013-10-29 10:31:00,
2013-10-29 06:36:00,46.2,44.6,30.19,South,181,0.0,0.0,94,0.00,,,0.00,0.00,VWS V14.01,2013-10-29 10:36:00,
2013-10-29 06:41:00,46.4,45.0,30.19,South,181,0.0,0.0,95,0.00,,,0.00,0.00,VWS V14.01,2013-10-29 10:41:00,
2013-10-29 06:46:00,46.5,45.2,30.19,South,181,0.0,0.0,95,0.00,,,0.00,0.00,VWS V14.01,2013-10-29 10:46:00,
2013-10-29 06:51:00,46.5,45.2,30.20,South,181,0.0,0.0,95,0.00,,,0.00,0.00,VWS V14.01,2013-10-29 10:51:00,
2013-10-29 06:56:00,46.5,45.2,30.20,South,181,0.0,0.0,95,0.00,,,0.00,0.00,VWS V14.01,2013-10-29 10:56:00,
2013-10-29 07:01:00,46.5,45.2,30.20,South,181,0.0,0.0,95,0.00,,,0.00,0.00,VWS V14.01,2013-10-29 11:01:00,
2013-10-29 07:06:00,46.5,45.2,30.20,South,181,0.0,0.0,95,0.00,,,0.00,0.00,VWS V14.01,2013-10-29 11:06:00,
2013-10-29 07:11:00,46.7,45.3,30.20,South,181,0.0,0.0,95,0.00,,,0.00,0.00,VWS V14.01,2013-10-29 11:11:00,
2013-10-29 07:16:00,46.8,45.5,30.20,South,181,0.0,0.0,95,0.00,,,0.00,0.00,VWS V14.01,2013-10-29 11:16:00,
2013-10-29 07:21:00,47.1,45.7,30.20,South,181,0.0,0.0,95,0.00,,,0.00,0.00,VWS V14.01,2013-10-29 11:21:00,
2013-10-29 07:26:00,47.1,45.7,30.20,South,181,0.0,0.0,95,0.00,,,0.00,0.00,VWS V14.01,2013-10-29 11:26:00,
2013-10-29 07:31:00,47.4,46.0,30.20,South,181,0.0,0.0,95,0.00,,,0.00,0.00,VWS V14.01,2013-10-29 11:31:00,
2013-10-29 07:36:00,47.6,46.2,30.21,South,181,0.0,0.0,95,0.00,,,0.00,0.00,VWS V14.01,2013-10-29 11:36:00,
2013-10-29 07:41:00,47.9,46.8,30.21,South,181,0.0,0.0,96,0.00,,,0.00,5.00,VWS V14.01,2013-10-29 11:41:00,
2013-10-29 07:46:00,48.2,47.1,30.21,South,181,0.0,0.0,96,0.00,,,0.00,7.00,VWS V14.01,2013-10-29 11:46:00,
2013-10-29 07:51:00,48.3,47.2,30.21,South,181,0.0,0.0,96,0.00,,,0.00,11.00,VWS V14.01,2013-10-29 11:51:00,
2013-10-29 07:56:00,48.5,47.4,30.21,South,181,0.0,0.0,96,0.00,,,0.00,16.00,VWS V14.01,2013-10-29 11:56:00,
2013-10-29 08:01:00,48.6,47.5,30.21,South,181,0.0,0.0,96,0.00,,,0.00,21.00,VWS V14.01,2013-10-29 12:01:00,
2013-10-29 08:06:00,48.9,47.8,30.21,South,181,0.0,0.0,96,0.00,,,0.00,23.00,VWS V14.01,2013-10-29 12:06:00,
2013-10-29 08:11:00,49.2,48.1,30.21,South,181,0.0,0.0,96,0.00,,,0.00,25.00,VWS V14.01,2013-10-29 12:11:00,
2013-10-29 08:16:00,49.5,48.4,30.21,South,181,0.0,0.0,96,0.00,,,0.00,23.00,VWS V14.01,2013-10-29 12:16:00,
2013-10-29 08:21:00,49.8,48.7,30.22,South,181,0.0,0.0,96,0.00,,,0.00,25.00,VWS V14.01,2013-10-29 12:21:00,
2013-10-29 08:26:00,49.9,48.8,30.22,South,181,0.0,0.0,96,0.00,,,0.00,26.00,VWS V14.01,2013-10-29 12:26:00,
2013-10-29 08:31:00,50.1,49.0,30.22,South,181,0.0,0.0,96,0.00,,,0.00,30.00,VWS V14.01,2013-10-29 12:31:00,
2013-10-29 08:36:00,50.4,49.3,30.23,South,181,0.0,0.0,96,0.00,,,0.00,32.00,VWS V14.01,2013-10-29 12:36:00,
2013-10-29 08:41:00,50.5,49.4,30.23,South,181,0.0,0.0,96,0.00,,,0.00,37.00,VWS V14.01,2013-10-29 12:41:00,
2013-10-29 08:46:00,50.8,49.7,30.23,South,181,0.0,0.0,96,0.00,,,0.00,37.00,VWS V14.01,2013-10-29 12:46:00,
2013-10-29 08:51:00,51.0,49.9,30.23,South,181,0.0,0.0,96,0.00,,,0.00,42.00,VWS V14.01,2013-10-29 12:51:00,
2013-10-29 08:56:00,51.1,50.0,30.23,South,181,0.0,0.0,96,0.00,,,0.00,49.00,VWS V14.01,2013-10-29 12:56:00,
2013-10-29 09:01:00,51.4,50.3,30.23,South,181,0.0,0.0,96,0.00,,,0.00,53.00,VWS V14.01,2013-10-29 13:01:00,
2013-10-29 09:06:00,51.6,50.5,30.23,South,181,0.0,0.0,96,0.00,,,0.00,54.00,VWS V14.01,2013-10-29 13:06:00,
2013-10-29 09:11:00,51.9,50.8,30.23,South,181,0.0,0.0,96,0.00,,,0.00,58.00,VWS V14.01,2013-10-29 13:11:00,
2013-10-29 09:16:00,52.2,51.1,30.23,South,181,0.0,0.0,96,0.00,,,0.00,60.00,VWS V14.01,2013-10-29 13:16:00,
2013-10-29 09:21:00,52.3,51.2,30.23,South,181,0.0,0.0,96,0.00,,,0.00,65.00,VWS V14.01,2013-10-29 13:21:00,
2013-10-29 09:26:00,52.6,51.5,30.23,South,181,0.0,0.0,96,0.00,,,0.00,70.00,VWS V14.01,2013-10-29 13:26:00,
2013-10-29 09:31:00,52.8,51.7,30.23,South,181,0.0,0.0,96,0.00,,,0.00,79.00,VWS V14.01,2013-10-29 13:31:00,
2013-10-29 09:36:00,53.1,52.0,30.24,South,181,0.0,0.0,96,0.00,,,0.00,86.00,VWS V14.01,2013-10-29 13:36:00,
2013-10-29 09:41:00,53.3,52.2,30.24,South,181,0.0,0.0,96,0.00,,,0.00,93.00,VWS V14.01,2013-10-29 13:41:00,
2013-10-29 09:46:00,53.6,52.5,30.24,South,181,0.0,0.0,96,0.00,,,0.00,105.00,VWS V14.01,2013-10-29 13:46:00,
2013-10-29 09:51:00,54.1,53.0,30.24,South,181,0.0,0.0,96,0.00,,,0.00,113.00,VWS V14.01,2013-10-29 13:51:00,
2013-10-29 09:56:00,54.4,53.3,30.24,South,181,0.0,0.0,96,0.00,,,0.00,114.00,VWS V14.01,2013-10-29 13:56:00,
2013-10-29 10:01:00,54.7,53.6,30.24,South,181,0.0,0.0,96,0.00,,,0.00,118.00,VWS V14.01,2013-10-29 14:01:00,
2013-10-29 10:06:00,55.1,54.0,30.24,ESE,116,0.0,0.0,96,0.00,,,0.00,134.00,VWS V14.01,2013-10-29 14:06:00,
2013-10-29 10:11:00,55.6,54.5,30.24,ESE,116,0.0,0.0,96,0.00,,,0.00,148.00,VWS V14.01,2013-10-29 14:11:00,
2013-10-29 10:16:00,55.7,54.6,30.24,ESE,116,0.0,0.0,96,0.00,,,0.00,144.00,VWS V14.01,2013-10-29 14:16:00,
2013-10-29 10:21:00,56.0,54.9,30.24,ESE,116,0.0,0.0,96,0.00,,,0.00,172.00,VWS V14.01,2013-10-29 14:21:00,
2013-10-29 10:26:00,56.3,55.2,30.24,ESE,116,0.0,0.0,96,0.00,,,0.00,183.00,VWS V14.01,2013-10-29 14:26:00,
2013-10-29 10:31:00,56.7,55.6,30.24,East,91,0.0,1.0,96,0.00,,,0.00,197.00,VWS V14.01,2013-10-29 14:31:00,
2013-10-29 10:36:00,57.2,56.1,30.24,East,91,0.0,0.0,96,0.00,,,0.00,211.00,VWS V14.01,2013-10-29 14:36:00,
2013-10-29 10:41:00,57.6,56.5,30.24,East,91,0.0,0.0,96,0.00,,,0.00,223.00,VWS V14.01,2013-10-29 14:41:00,
2013-10-29 10:46:00,58.1,57.0,30.24,East,91,3.0,3.0,96,0.00,,,0.00,236.00,VWS V14.01,2013-10-29 14:46:00,
2013-10-29 10:51:00,58.6,57.5,30.24,NNW,343,0.0,0.0,96,0.00,,,0.00,223.00,VWS V14.01,2013-10-29 14:51:00,
2013-10-29 10:56:00,59.0,57.6,30.24,North,358,0.0,0.0,95,0.00,,,0.00,227.00,VWS V14.01,2013-10-29 14:56:00,
2013-10-29 11:01:00,59.3,57.3,30.24,North,358,0.0,0.0,93,0.00,,,0.00,253.00,VWS V14.01,2013-10-29 15:01:00,
2013-10-29 11:06:00,59.8,57.5,30.24,North,358,2.0,2.0,92,0.00,,,0.00,258.00,VWS V14.01,2013-10-29 15:06:00,
2013-10-29 11:11:00,60.2,57.6,30.24,North,358,4.0,4.0,91,0.00,,,0.00,241.00,VWS V14.01,2013-10-29 15:11:00,
2013-10-29 11:16:00,60.5,56.9,30.24,North,358,0.0,1.0,88,0.00,,,0.00,262.00,VWS V14.01,2013-10-29 15:16:00,
2013-10-29 11:21:00,61.2,57.3,30.24,North,358,0.0,0.0,87,0.00,,,0.00,287.00,VWS V14.01,2013-10-29 15:21:00,
2013-10-29 11:26:00,61.6,56.7,30.24,North,358,1.0,2.0,84,0.00,,,0.00,322.00,VWS V14.01,2013-10-29 15:26:00,
2013-10-29 11:31:00,62.3,57.1,30.24,North,0,0.0,0.0,83,0.00,,,0.00,348.00,VWS V14.01,2013-10-29 15:31:00,
2013-10-29 11:36:00,62.7,56.5,30.23,North,0,0.0,0.0,80,0.00,,,0.00,345.00,VWS V14.01,2013-10-29 15:36:00,
2013-10-29 11:41:00,63.4,56.4,30.23,North,0,0.0,0.0,78,0.00,,,0.00,325.00,VWS V14.01,2013-10-29 15:41:00,
2013-10-29 11:46:00,63.9,56.2,30.23,North,0,0.0,0.0,76,0.00,,,0.00,304.00,VWS V14.01,2013-10-29 15:46:00,
2013-10-29 11:51:00,64.5,56.4,30.23,North,0,0.0,2.0,75,0.00,,,0.00,334.00,VWS V14.01,2013-10-29 15:51:00,
2013-10-29 11:56:00,65.0,56.2,30.23,North,0,0.0,0.0,73,0.00,,,0.00,469.00,VWS V14.01,2013-10-29 15:56:00,
2013-10-29 12:01:00,65.6,56.0,30.23,North,0,0.0,0.0,71,0.00,,,0.00,483.00,VWS V14.01,2013-10-29 16:01:00,
2013-10-29 12:06:00,66.1,55.7,30.22,North,0,0.0,0.0,69,0.00,,,0.00,417.00,VWS V14.01,2013-10-29 16:06:00,
2013-10-29 12:11:00,66.4,55.1,30.22,North,0,0.0,0.0,67,0.00,,,0.00,585.00,VWS V14.01,2013-10-29 16:11:00,
2013-10-29 12:16:00,67.1,55.8,30.22,North,0,0.0,1.0,67,0.00,,,0.00,826.00,VWS V14.01,2013-10-29 16:16:00,
2013-10-29 12:21:00,67.9,56.1,30.22,North,0,0.0,0.0,66,0.00,,,0.00,387.00,VWS V14.01,2013-10-29 16:21:00,
2013-10-29 12:26:00,68.6,55.5,30.22,North,0,0.0,0.0,63,0.00,,,0.00,294.00,VWS V14.01,2013-10-29 16:26:00,
2013-10-29 12:31:00,68.8,54.4,30.22,North,0,0.0,0.0,60,0.00,,,0.00,548.00,VWS V14.01,2013-10-29 16:31:00,
2013-10-29 12:36:00,69.3,54.8,30.21,North,0,0.0,0.0,60,0.00,,,0.00,675.00,VWS V14.01,2013-10-29 16:36:00,
2013-10-29 12:41:00,69.8,54.8,30.21,North,0,0.0,0.0,59,0.00,,,0.00,664.00,VWS V14.01,2013-10-29 16:41:00,
2013-10-29 12:46:00,70.3,55.3,30.21,North,0,0.0,0.0,59,0.00,,,0.00,657.00,VWS V14.01,2013-10-29 16:46:00,
2013-10-29 12:51:00,71.1,55.6,30.21,WSW,257,0.0,0.0,58,0.00,,,0.00,664.00,VWS V14.01,2013-10-29 16:51:00,
2013-10-29 12:56:00,71.6,55.1,30.21,SSW,213,0.0,2.0,56,0.00,,,0.00,663.00,VWS V14.01,2013-10-29 16:56:00,
2013-10-29 13:01:00,72.1,54.6,30.21,SSW,213,0.0,0.0,54,0.00,,,0.00,664.00,VWS V14.01,2013-10-29 17:01:00,
2013-10-29 13:06:00,72.1,54.6,30.21,SSW,205,2.0,3.0,54,0.00,,,0.00,663.00,VWS V14.01,2013-10-29 17:06:00,
2013-10-29 13:12:00,72.5,54.4,30.21,ENE,75,0.0,0.0,53,0.00,,,0.00,677.00,VWS V14.01,2013-10-29 17:12:00,
2013-10-29 13:16:00,72.7,54.1,30.21,NNW,332,3.0,3.0,52,0.00,,,0.00,659.00,VWS V14.01,2013-10-29 17:16:00,
2013-10-29 13:21:00,72.7,53.5,30.20,NW,322,0.0,0.0,51,0.00,,,0.00,661.00,VWS V14.01,2013-10-29 17:21:00,
2013-10-29 13:26:00,72.8,53.6,30.20,North,358,0.0,3.0,51,0.00,,,0.00,659.00,VWS V14.01,2013-10-29 17:26:00,
2013-10-29 13:31:00,73.2,52.9,30.20,NNW,340,7.0,7.0,49,0.00,,,0.00,638.00,VWS V14.01,2013-10-29 17:31:00,
2013-10-29 13:36:00,73.2,53.5,30.19,ENE,58,2.0,3.0,50,0.00,,,0.00,591.00,VWS V14.01,2013-10-29 17:36:00,
2013-10-29 13:41:00,73.2,53.5,30.19,ENE,76,0.0,0.0,50,0.00,,,0.00,599.00,VWS V14.01,2013-10-29 17:41:00,
2013-10-29 13:46:00,73.3,53.6,30.19,ENE,76,0.0,0.0,50,0.00,,,0.00,557.00,VWS V14.01,2013-10-29 17:46:00,
2013-10-29 13:51:00,73.5,53.2,30.18,NNW,328,0.0,3.0,49,0.00,,,0.00,482.00,VWS V14.01,2013-10-29 17:51:00,
2013-10-29 13:56:00,73.5,53.7,30.18,NNW,328,0.0,0.0,50,0.00,,,0.00,499.00,VWS V14.01,2013-10-29 17:56:00,
2013-10-29 14:01:00,73.5,52.6,30.18,NNW,328,2.0,3.0,48,0.00,,,0.00,457.00,VWS V14.01,2013-10-29 18:01:00,
2013-10-29 14:06:00,73.2,53.5,30.18,North,8,1.0,1.0,50,0.00,,,0.00,561.00,VWS V14.01,2013-10-29 18:06:00,
2013-10-29 14:11:00,73.2,53.5,30.18,North,8,0.0,0.0,50,0.00,,,0.00,508.00,VWS V14.01,2013-10-29 18:11:00,
2013-10-29 14:16:00,73.3,53.6,30.18,WNW,293,0.0,0.0,50,0.00,,,0.00,512.00,VWS V14.01,2013-10-29 18:16:00,
2013-10-29 14:21:00,73.5,52.6,30.18,West,259,4.0,4.0,48,0.00,,,0.00,404.00,VWS V14.01,2013-10-29 18:21:00,
2013-10-29 14:26:00,73.7,52.8,30.18,WNW,288,0.0,0.0,48,0.00,,,0.00,471.00,VWS V14.01,2013-10-29 18:26:00,
2013-10-29 14:31:00,74.0,53.1,30.18,NNW,327,0.0,0.0,48,0.00,,,0.00,526.00,VWS V14.01,2013-10-29 18:31:00,
2013-10-29 14:36:00,73.7,53.9,30.17,North,358,0.0,0.0,50,0.00,,,0.00,469.00,VWS V14.01,2013-10-29 18:36:00,
2013-10-29 14:41:00,73.3,54.6,30.17,North,5,6.0,6.0,52,0.00,,,0.00,199.00,VWS V14.01,2013-10-29 18:41:00,
2013-10-29 14:46:00,73.0,52.7,30.17,North,6,0.0,0.0,49,0.00,,,0.00,561.00,VWS V14.01,2013-10-29 18:46:00,
2013-10-29 14:51:00,72.8,52.5,30.17,ENE,75,1.0,2.0,49,0.00,,,0.00,622.00,VWS V14.01,2013-10-29 18:51:00,
2013-10-29 14:56:00,73.3,53.0,30.17,ENE,75,0.0,0.0,49,0.00,,,0.00,619.00,VWS V14.01,2013-10-29 18:56:00,
2013-10-29 15:01:00,73.5,52.6,30.17,WNW,284,2.0,4.0,48,0.00,,,0.00,392.00,VWS V14.01,2013-10-29 19:01:00,
2013-10-29 15:06:00,73.7,52.8,30.17,South,186,0.0,3.0,48,0.00,,,0.00,524.00,VWS V14.01,2013-10-29 19:06:00,
2013-10-29 15:11:00,73.9,52.4,30.17,NW,311,0.0,0.0,47,0.00,,,0.00,545.00,VWS V14.01,2013-10-29 19:11:00,
2013-10-29 15:16:00,74.0,52.5,30.17,NW,311,0.0,0.0,47,0.00,,,0.00,483.00,VWS V14.01,2013-10-29 19:16:00,
2013-10-29 15:21:00,74.4,52.9,30.17,NW,311,0.0,0.0,47,0.00,,,0.00,471.00,VWS V14.01,2013-10-29 19:21:00,
2013-10-29 15:26:00,74.7,52.6,30.17,NNW,334,0.0,0.0,46,0.00,,,0.00,510.00,VWS V14.01,2013-10-29 19:26:00,
2013-10-29 15:31:00,74.9,53.3,30.17,NW,320,0.0,0.0,47,0.00,,,0.00,517.00,VWS V14.01,2013-10-29 19:31:00,
2013-10-29 15:36:00,74.9,52.8,30.17,North,4,3.0,4.0,46,0.00,,,0.00,476.00,VWS V14.01,2013-10-29 19:36:00,
2013-10-29 15:41:00,74.7,52.6,30.17,North,4,0.0,0.0,46,0.00,,,0.00,475.00,VWS V14.01,2013-10-29 19:41:00,
2013-10-29 15:46:00,74.9,52.8,30.17,North,353,4.0,4.0,46,0.00,,,0.00,464.00,VWS V14.01,2013-10-29 19:46:00,
2013-10-29 15:51:00,75.1,52.3,30.17,NNW,345,0.0,1.0,45,0.00,,,0.00,448.00,VWS V14.01,2013-10-29 19:51:00,
2013-10-29 15:56:00,75.1,52.9,30.17,WNW,292,0.0,0.0,46,0.00,,,0.00,499.00,VWS V14.01,2013-10-29 19:56:00,
2013-10-29 16:01:00,75.3,52.5,30.17,WNW,292,0.0,0.0,45,0.00,,,0.00,394.00,VWS V14.01,2013-10-29 20:01:00,
2013-10-29 16:06:00,75.3,52.5,30.17,West,276,0.0,0.0,45,0.00,,,0.00,86.00,VWS V14.01,2013-10-29 20:06:00,
2013-10-29 16:11:00,74.7,53.2,30.17,NW,317,4.0,5.0,47,0.00,,,0.00,388.00,VWS V14.01,2013-10-29 20:11:00,
2013-10-29 16:16:00,74.2,52.7,30.17,NW,317,0.0,0.0,47,0.00,,,0.00,359.00,VWS V14.01,2013-10-29 20:16:00,
2013-10-29 16:21:00,73.9,53.0,30.17,NW,309,0.0,0.0,48,0.00,,,0.00,320.00,VWS V14.01,2013-10-29 20:21:00,
2013-10-29 16:26:00,73.5,52.1,30.17,NW,320,0.0,0.0,47,0.00,,,0.00,181.00,VWS V14.01,2013-10-29 20:26:00,
2013-10-29 16:31:00,73.2,52.4,30.17,NW,321,0.0,0.0,48,0.00,,,0.00,98.00,VWS V14.01,2013-10-29 20:31:00,
2013-10-29 16:36:00,72.8,52.5,30.17,North,1,0.0,0.0,49,0.00,,,0.00,97.00,VWS V14.01,2013-10-29 20:36:00,
2013-10-29 16:41:00,72.7,53.0,30.17,North,0,0.0,0.0,50,0.00,,,0.00,91.00,VWS V14.01,2013-10-29 20:41:00,
2013-10-29 16:46:00,72.5,53.4,30.17,NNW,342,0.0,0.0,51,0.00,,,0.00,95.00,VWS V14.01,2013-10-29 20:46:00,
2013-10-29 16:51:00,72.5,52.8,30.17,NNW,342,0.0,0.0,50,0.00,,,0.00,98.00,VWS V14.01,2013-10-29 20:51:00,
2013-10-29 16:56:00,72.3,53.2,30.17,NNW,342,0.0,0.0,51,0.00,,,0.00,100.00,VWS V14.01,2013-10-29 20:56:00,
2013-10-29 17:01:00,72.1,53.0,30.17,NNW,342,0.0,0.0,51,0.00,,,0.00,91.00,VWS V14.01,2013-10-29 21:01:00,
2013-10-29 17:06:00,72.0,52.4,30.16,NNW,342,0.0,0.0,50,0.00,,,0.00,100.00,VWS V14.01,2013-10-29 21:06:00,
2013-10-29 17:11:00,72.0,52.4,30.16,NNW,342,0.0,0.0,50,0.00,,,0.00,93.00,VWS V14.01,2013-10-29 21:11:00,
2013-10-29 17:16:00,71.8,53.8,30.16,NNW,342,3.0,3.0,53,0.00,,,0.00,74.00,VWS V14.01,2013-10-29 21:16:00,
2013-10-29 17:21:00,71.6,53.6,30.17,NNW,342,0.0,0.0,53,0.00,,,0.00,63.00,VWS V14.01,2013-10-29 21:21:00,
2013-10-29 17:26:00,71.3,54.3,30.17,NNW,342,0.0,0.0,55,0.00,,,0.00,56.00,VWS V14.01,2013-10-29 21:26:00,
2013-10-29 17:31:00,70.9,54.9,30.17,NNW,342,0.0,0.0,57,0.00,,,0.00,56.00,VWS V14.01,2013-10-29 21:31:00,
2013-10-29 17:36:00,70.4,55.4,30.17,NNW,342,0.0,0.0,59,0.00,,,0.00,54.00,VWS V14.01,2013-10-29 21:36:00,
2013-10-29 17:41:00,69.9,56.3,30.17,NNW,342,0.0,0.0,62,0.00,,,0.00,51.00,VWS V14.01,2013-10-29 21:41:00,
2013-10-29 17:46:00,69.4,56.3,30.17,NNW,342,0.0,0.0,63,0.00,,,0.00,49.00,VWS V14.01,2013-10-29 21:46:00,
2013-10-29 17:51:00,68.8,56.1,30.17,NNW,342,0.0,0.0,64,0.00,,,0.00,44.00,VWS V14.01,2013-10-29 21:51:00,
2013-10-29 17:56:00,68.3,56.1,30.17,NNW,342,0.0,0.0,65,0.00,,,0.00,35.00,VWS V14.01,2013-10-29 21:56:00,
2013-10-29 18:01:00,67.8,56.5,30.17,NNW,342,0.0,0.0,67,0.00,,,0.00,30.00,VWS V14.01,2013-10-29 22:01:00,
2013-10-29 18:06:00,67.3,56.4,30.18,NNW,342,0.0,0.0,68,0.00,,,0.00,21.00,VWS V14.01,2013-10-29 22:06:00,
2013-10-29 18:11:00,66.8,55.9,30.18,NNW,342,0.0,0.0,68,0.00,,,0.00,16.00,VWS V14.01,2013-10-29 22:11:00,
2013-10-29 18:16:00,66.4,55.5,30.18,NNW,342,0.0,0.0,68,0.00,,,0.00,9.00,VWS V14.01,2013-10-29 22:16:00,
2013-10-29 18:21:00,65.8,55.4,30.18,NNW,342,0.0,0.0,69,0.00,,,0.00,5.00,VWS V14.01,2013-10-29 22:21:00,
2013-10-29 18:26:00,65.3,55.3,30.18,NNW,342,0.0,0.0,70,0.00,,,0.00,0.00,VWS V14.01,2013-10-29 22:26:00,
2013-10-29 18:31:00,64.8,54.8,30.18,NNW,342,0.0,0.0,70,0.00,,,0.00,0.00,VWS V14.01,2013-10-29 22:31:00,
2013-10-29 18:36:00,64.3,54.7,30.18,NNW,342,0.0,0.0,71,0.00,,,0.00,0.00,VWS V14.01,2013-10-29 22:36:00,
2013-10-29 18:41:00,63.9,54.7,30.18,NNW,342,0.0,0.0,72,0.00,,,0.00,0.00,VWS V14.01,2013-10-29 22:41:00,
2013-10-29 18:46:00,63.2,54.0,30.18,NNW,342,0.0,0.0,72,0.00,,,0.00,0.00,VWS V14.01,2013-10-29 22:46:00,
2013-10-29 18:51:00,62.7,53.9,30.19,NNW,342,0.0,0.0,73,0.00,,,0.00,0.00,VWS V14.01,2013-10-29 22:51:00,
2013-10-29 18:56:00,62.1,54.1,30.19,NNW,342,0.0,0.0,75,0.00,,,0.00,0.00,VWS V14.01,2013-10-29 22:56:00,
2013-10-29 19:01:00,61.8,54.5,30.19,NNW,342,0.0,0.0,77,0.00,,,0.00,0.00,VWS V14.01,2013-10-29 23:01:00,
2013-10-29 19:06:00,61.3,54.7,30.20,NNW,342,0.0,0.0,79,0.00,,,0.00,0.00,VWS V14.01,2013-10-29 23:06:00,
2013-10-29 19:11:00,61.0,54.8,30.20,NNW,342,0.0,0.0,80,0.00,,,0.00,0.00,VWS V14.01,2013-10-29 23:11:00,
2013-10-29 19:16:00,60.5,54.7,30.20,NNW,342,0.0,0.0,81,0.00,,,0.00,0.00,VWS V14.01,2013-10-29 23:16:00,
2013-10-29 19:21:00,60.2,54.7,30.20,NNW,342,0.0,0.0,82,0.00,,,0.00,0.00,VWS V14.01,2013-10-29 23:21:00,
2013-10-29 19:26:00,59.8,54.0,30.20,NNW,342,0.0,0.0,81,0.00,,,0.00,0.00,VWS V14.01,2013-10-29 23:26:00,
2013-10-29 19:31:00,59.5,54.0,30.20,NNW,342,0.0,0.0,82,0.00,,,0.00,0.00,VWS V14.01,2013-10-29 23:31:00,
2013-10-29 19:36:00,59.2,53.4,30.21,NNW,342,0.0,0.0,81,0.00,,,0.00,0.00,VWS V14.01,2013-10-29 23:36:00,
2013-10-29 19:41:00,58.7,53.2,30.21,NNW,342,0.0,0.0,82,0.00,,,0.00,0.00,VWS V14.01,2013-10-29 23:41:00,
2013-10-29 19:46:00,58.4,52.9,30.21,NNW,342,0.0,0.0,82,0.00,,,0.00,0.00,VWS V14.01,2013-10-29 23:46:00,
2013-10-29 19:51:00,58.1,52.6,30.21,NNW,342,0.0,0.0,82,0.00,,,0.00,0.00,VWS V14.01,2013-10-29 23:51:00,
2013-10-29 19:56:00,57.8,53.0,30.21,NNW,342,0.0,0.0,84,0.00,,,0.00,0.00,VWS V14.01,2013-10-29 23:56:00,
2013-10-29 20:01:00,57.5,52.7,30.21,NNW,342,0.0,0.0,84,0.00,,,0.00,0.00,VWS V14.01,2013-10-30 00:01:00,
2013-10-29 20:06:00,57.3,52.8,30.21,NNW,342,0.0,0.0,85,0.00,,,0.00,0.00,VWS V14.01,2013-10-30 00:06:00,
2013-10-29 20:11:00,57.0,52.5,30.21,NNW,342,0.0,0.0,85,0.00,,,0.00,0.00,VWS V14.01,2013-10-30 00:11:00,
2013-10-29 20:16:00,56.9,52.8,30.21,NNW,342,0.0,0.0,86,0.00,,,0.00,0.00,VWS V14.01,2013-10-30 00:16:00,
2013-10-29 20:21:00,56.7,52.9,30.21,NNW,342,0.0,0.0,87,0.00,,,0.00,0.00,VWS V14.01,2013-10-30 00:21:00,
2013-10-29 20:26:00,56.5,53.0,30.21,NNW,342,0.0,0.0,88,0.00,,,0.00,0.00,VWS V14.01,2013-10-30 00:26:00,
2013-10-29 20:31:00,56.3,52.8,30.21,NNW,342,0.0,0.0,88,0.00,,,0.00,0.00,VWS V14.01,2013-10-30 00:31:00,
2013-10-29 20:36:00,56.2,52.7,30.21,NNW,342,0.0,0.0,88,0.00,,,0.00,0.00,VWS V14.01,2013-10-30 00:36:00,
2013-10-29 20:41:00,56.0,52.5,30.21,NNW,342,0.0,0.0,88,0.00,,,0.00,0.00,VWS V14.01,2013-10-30 00:41:00,
2013-10-29 20:46:00,55.9,52.7,30.21,NNW,342,0.0,0.0,89,0.00,,,0.00,0.00,VWS V14.01,2013-10-30 00:46:00,
2013-10-29 20:51:00,55.6,52.4,30.21,NNW,342,0.0,0.0,89,0.00,,,0.00,0.00,VWS V14.01,2013-10-30 00:51:00,
2013-10-29 20:56:00,55.4,52.2,30.21,NNW,342,0.0,0.0,89,0.00,,,0.00,0.00,VWS V14.01,2013-10-30 00:56:00,
2013-10-29 21:01:00,55.3,52.1,30.21,NNW,342,0.0,0.0,89,0.00,,,0.00,0.00,VWS V14.01,2013-10-30 01:01:00,
2013-10-29 21:06:00,55.1,52.2,30.21,NNW,342,0.0,0.0,90,0.00,,,0.00,0.00,VWS V14.01,2013-10-30 01:06:00,
2013-10-29 21:11:00,54.8,51.6,30.21,NNW,342,0.0,0.0,89,0.00,,,0.00,0.00,VWS V14.01,2013-10-30 01:11:00,
2013-10-29 21:16:00,54.7,51.5,30.21,NNW,342,0.0,0.0,89,0.00,,,0.00,0.00,VWS V14.01,2013-10-30 01:16:00,
2013-10-29 21:21:00,54.5,51.6,30.21,NNW,342,0.0,0.0,90,0.00,,,0.00,0.00,VWS V14.01,2013-10-30 01:21:00,
2013-10-29 21:26:00,54.4,51.5,30.21,NNW,342,0.0,0.0,90,0.00,,,0.00,0.00,VWS V14.01,2013-10-30 01:26:00,
2013-10-29 21:31:00,54.2,51.3,30.21,NNW,342,0.0,0.0,90,0.00,,,0.00,0.00,VWS V14.01,2013-10-30 01:31:00,
2013-10-29 21:36:00,53.9,51.0,30.21,NNW,342,0.0,0.0,90,0.00,,,0.00,0.00,VWS V14.01,2013-10-30 01:36:00,
2013-10-29 21:41:00,53.8,50.9,30.21,NNW,342,0.0,0.0,90,0.00,,,0.00,0.00,VWS V14.01,2013-10-30 01:41:00,
2013-10-29 21:46:00,53.6,50.7,30.21,NNW,342,0.0,0.0,90,0.00,,,0.00,0.00,VWS V14.01,2013-10-30 01:46:00,
2013-10-29 21:51:00,53.5,50.6,30.21,NNW,342,0.0,0.0,90,0.00,,,0.00,0.00,VWS V14.01,2013-10-30 01:51:00,
2013-10-29 21:56:00,53.3,50.5,30.21,NNW,342,0.0,0.0,90,0.00,,,0.00,0.00,VWS V14.01,2013-10-30 01:56:00,
2013-10-29 22:01:00,53.2,50.7,30.21,NNW,342,0.0,0.0,91,0.00,,,0.00,0.00,VWS V14.01,2013-10-30 02:01:00,
2013-10-29 22:06:00,52.9,50.3,30.22,NNW,342,0.0,0.0,91,0.00,,,0.00,0.00,VWS V14.01,2013-10-30 02:06:00,
2013-10-29 22:11:00,52.8,50.2,30.22,NNW,342,0.0,0.0,91,0.00,,,0.00,0.00,VWS V14.01,2013-10-30 02:11:00,
2013-10-29 22:16:00,52.8,50.2,30.22,NNW,342,0.0,0.0,91,0.00,,,0.00,0.00,VWS V14.01,2013-10-30 02:16:00,
2013-10-29 22:21:00,52.8,50.2,30.22,NNW,342,0.0,0.0,91,0.00,,,0.00,0.00,VWS V14.01,2013-10-30 02:21:00,
2013-10-29 22:26:00,52.6,50.3,30.22,NNW,342,0.0,0.0,92,0.00,,,0.00,0.00,VWS V14.01,2013-10-30 02:26:00,
2013-10-29 22:31:00,52.6,50.3,30.22,NNW,342,0.0,0.0,92,0.00,,,0.00,0.00,VWS V14.01,2013-10-30 02:31:00,
2013-10-29 22:36:00,52.5,50.2,30.23,NNW,342,0.0,0.0,92,0.00,,,0.00,0.00,VWS V14.01,2013-10-30 02:36:00,
2013-10-29 22:41:00,52.3,50.0,30.23,NNW,342,0.0,0.0,92,0.00,,,0.00,0.00,VWS V14.01,2013-10-30 02:41:00,
2013-10-29 22:46:00,52.2,50.0,30.23,NNW,342,0.0,0.0,92,0.00,,,0.00,0.00,VWS V14.01,2013-10-30 02:46:00,
2013-10-29 22:51:00,52.0,49.8,30.23,NNW,342,0.0,0.0,92,0.00,,,0.00,0.00,VWS V14.01,2013-10-30 02:51:00,
2013-10-29 22:56:00,52.0,49.8,30.23,NNW,342,0.0,0.0,92,0.00,,,0.00,0.00,VWS V14.01,2013-10-30 02:56:00,
2013-10-29 23:01:00,52.0,49.8,30.23,NNW,342,0.0,0.0,92,0.00,,,0.00,0.00,VWS V14.01,2013-10-30 03:01:00,
2013-10-29 23:06:00,52.0,49.8,30.22,NNW,342,0.0,0.0,92,0.00,,,0.00,0.00,VWS V14.01,2013-10-30 03:06:00,
2013-10-29 23:11:00,51.9,49.9,30.22,NNW,342,0.0,0.0,93,0.00,,,0.00,0.00,VWS V14.01,2013-10-30 03:11:00,
2013-10-29 23:16:00,51.9,49.9,30.22,NNW,342,0.0,0.0,93,0.00,,,0.00,0.00,VWS V14.01,2013-10-30 03:16:00,
2013-10-29 23:21:00,52.0,50.0,30.21,NNW,342,0.0,0.0,93,0.00,,,0.00,0.00,VWS V14.01,2013-10-30 03:21:00,
2013-10-29 23:26:00,51.9,49.9,30.21,NNW,342,0.0,0.0,93,0.00,,,0.00,0.00,VWS V14.01,2013-10-30 03:26:00,
2013-10-29 23:31:00,51.7,49.8,30.21,NNW,342,0.0,0.0,93,0.00,,,0.00,0.00,VWS V14.01,2013-10-30 03:31:00,
2013-10-29 23:36:00,51.6,49.7,30.21,NNW,342,0.0,0.0,93,0.00,,,0.00,0.00,VWS V14.01,2013-10-30 03:36:00,
2013-10-29 23:41:00,51.4,49.5,30.21,NNW,342,0.0,0.0,93,0.00,,,0.00,0.00,VWS V14.01,2013-10-30 03:41:00,
2013-10-29 23:46:00,51.1,49.2,30.21,NNW,342,0.0,0.0,93,0.00,,,0.00,0.00,VWS V14.01,2013-10-30 03:46:00,
2013-10-29 23:51:00,51.0,49.0,30.21,NNW,342,0.0,0.0,93,0.00,,,0.00,0.00,VWS V14.01,2013-10-30 03:51:00,
2013-10-29 23:56:00,50.8,48.8,30.21,NNW,342,0.0,0.0,93,0.00,,,0.00,0.00,VWS V14.01,2013-10-30 03:56:00,